| time (UTC) | temp F | wind direction | speed MPH | gust MPH | rain 1hr in | rain 24hr in | rain mn in | humidity % | barometer mb |
| 20260831013006 | 73 | 360 | 0.0 | 0.0 | 0.00 | 0.00 | 0.00 | 82 | 1024.3 |
| 20260831011506 | 74 | 264 | 0.0 | 0.0 | 0.00 | 0.00 | 0.00 | 81 | 1024.3 |
| 20260831010007 | 74 | 360 | 0.0 | 0.0 | 0.00 | 0.00 | 0.00 | 81 | 1024.0 |
| 20260831004504 | 74 | 360 | 0.0 | 0.0 | 0.00 | 0.00 | 0.00 | 81 | 1023.8 |
| 20260831003003 | 74 | 270 | 0.0 | 0.0 | 0.00 | 0.00 | 0.00 | 81 | 1023.5 |
| 20260831001502 | 74 | 274 | 0.0 | 0.0 | 0.00 | 0.00 | 0.00 | 81 | 1023.5 |
| 20260831000001 | 74 | 280 | 0.0 | 0.0 | 0.00 | 0.00 | 0.00 | 81 | 1023.4 |
| 20260830234501 | 75 | 279 | 0.0 | 0.0 | 0.00 | 0.00 | 0.00 | 81 | 1023.2 |
| 20260830233100 | 75 | 278 | 0.0 | 0.0 | 0.00 | 0.00 | 0.00 | 80 | 1023.2 |
| 20260830231603 | 75 | 280 | 0.0 | 0.0 | 0.00 | 0.00 | 0.00 | 80 | 1023.3 |
| 20260830230100 | 76 | 280 | 0.0 | 0.0 | 0.00 | 0.00 | 0.00 | 80 | 1023.4 |
| 20260830224607 | 77 | 280 | 0.0 | 0.0 | 0.00 | 0.00 | 0.00 | 79 | 1023.5 |
| 20260830223100 | 77 | 280 | 0.0 | 0.0 | 0.00 | 0.00 | 0.00 | 78 | 1023.4 |
| 20260830221558 | 78 | 281 | 0.0 | 0.0 | 0.00 | 0.00 | 0.00 | 78 | 1023.5 |
| 20260830220121 | 78 | 281 | 0.0 | 0.0 | 0.00 | 0.00 | 0.00 | 78 | 1023.3 |
| 20260830214603 | 78 | 280 | 0.0 | 0.0 | 0.00 | 0.00 | 0.00 | 77 | 1023.2 |
| 20260830213056 | 79 | 280 | 0.0 | 0.0 | 0.00 | 0.00 | 0.00 | 77 | 1023.4 |
| 20260830210039 | 80 | 269 | 0.0 | 0.0 | 0.00 | 0.00 | 0.00 | 73 | 1023.2 |
| 20260830204539 | 80 | 360 | 0.0 | 0.0 | 0.00 | 0.00 | 0.00 | 73 | 1023.2 |
| 20260830203037 | 80 | 304 | 0.0 | 0.0 | 0.00 | 0.00 | 0.00 | 74 | 1023.2 |
| 20260830201535 | 80 | 274 | 0.0 | 0.0 | 0.00 | 0.00 | 0.00 | 73 | 1023.5 |
| 20260830200033 | 80 | 360 | 0.0 | 0.0 | 0.00 | 0.00 | 0.00 | 73 | 1023.6 |
| 20260830194534 | 80 | 271 | 0.0 | 0.0 | 0.00 | 0.00 | 0.00 | 74 | 1023.6 |
| 20260830193030 | 80 | 277 | 0.0 | 0.0 | 0.00 | 0.00 | 0.00 | 75 | 1024.1 |
| 20260830191527 | 79 | 360 | 0.0 | 0.0 | 0.00 | 0.00 | 0.00 | 75 | 1024.3 |
| 20260830190031 | 79 | 360 | 0.0 | 0.0 | 0.00 | 0.00 | 0.00 | 75 | 1024.6 |
| 20260830184525 | 79 | 257 | 0.0 | 0.0 | 0.00 | 0.00 | 0.00 | 76 | 1024.8 |
| 20260830183020 | 78 | 294 | 0.0 | 0.0 | 0.00 | 0.00 | 0.00 | 76 | 1024.7 |
| 20260830181528 | 78 | 218 | 0.0 | 0.0 | 0.00 | 0.00 | 0.00 | 77 | 1024.9 |
| 20260830180016 | 77 | 213 | 0.0 | 0.0 | 0.00 | 0.00 | 0.00 | 78 | 1025.1 |
| 20260830174523 | 77 | 219 | 0.0 | 0.0 | 0.00 | 0.00 | 0.00 | 78 | 1025.3 |
| 20260830173009 | 76 | 360 | 0.0 | 0.0 | 0.00 | 0.00 | 0.00 | 78 | 1025.5 |
| 20260830171505 | 75 | 212 | 0.0 | 0.0 | 0.00 | 0.00 | 0.00 | 80 | 1025.7 |
| 20260830170003 | 74 | 211 | 0.0 | 0.0 | 0.00 | 0.00 | 0.00 | 81 | 1025.6 |
| 20260830164603 | 73 | 206 | 0.0 | 0.0 | 0.00 | 0.00 | 0.00 | 82 | 1025.6 |
| 20260830163102 | 71 | 202 | 0.0 | 0.0 | 0.00 | 0.00 | 0.00 | 82 | 1025.6 |
| 20260830161605 | 70 | 219 | 0.0 | 0.0 | 0.00 | 0.00 | 0.00 | 82 | 1026.0 |
| 20260830160050 | 70 | 219 | 0.0 | 0.0 | 0.00 | 0.00 | 0.00 | 82 | 1026.3 |
| 20260830154546 | 70 | 220 | 0.0 | 0.0 | 0.00 | 0.00 | 0.00 | 82 | 1026.3 |
| 20260830153041 | 69 | 213 | 0.0 | 0.0 | 0.00 | 0.00 | 0.00 | 83 | 1026.6 |
| 20260830151540 | 68 | 210 | 0.0 | 0.0 | 0.00 | 0.00 | 0.00 | 83 | 1026.6 |
| 20260830150034 | 66 | 215 | 0.0 | 0.0 | 0.00 | 0.00 | 0.00 | 83 | 1026.6 |
| 20260830144535 | 66 | 210 | 0.0 | 0.0 | 0.00 | 0.00 | 0.00 | 83 | 1026.8 |
| 20260830143031 | 65 | 198 | 0.0 | 0.0 | 0.00 | 0.00 | 0.00 | 83 | 1026.8 |
| 20260830141528 | 65 | 198 | 0.0 | 0.0 | 0.00 | 0.00 | 0.00 | 82 | 1026.7 |
| 20260830140027 | 64 | 193 | 0.0 | 0.0 | 0.00 | 0.00 | 0.00 | 81 | 1026.6 |
| 20260830134539 | 64 | 182 | 0.0 | 0.0 | 0.00 | 0.00 | 0.00 | 80 | 1026.6 |
| 20260830133027 | 64 | 186 | 0.0 | 0.0 | 0.00 | 0.00 | 0.00 | 79 | 1026.8 |
| 20260830131524 | 64 | 185 | 0.0 | 0.0 | 0.00 | 0.00 | 0.00 | 76 | 1027.2 |
| 20260830130021 | 64 | 171 | 0.0 | 0.0 | 0.00 | 0.00 | 0.00 | 76 | 1027.2 |
| 20260830124523 | 64 | 161 | 0.0 | 0.0 | 0.00 | 0.00 | 0.00 | 76 | 1027.0 |
| 20260830123021 | 64 | 166 | 0.0 | 0.0 | 0.00 | 0.00 | 0.00 | 77 | 1027.1 |
| 20260830121516 | 63 | 175 | 0.0 | 0.0 | 0.00 | 0.00 | 0.00 | 79 | 1027.3 |
| 20260830120016 | 63 | 179 | 0.0 | 0.0 | 0.00 | 0.00 | 0.00 | 77 | 1027.4 |
| 20260830114515 | 63 | 180 | 0.0 | 0.0 | 0.00 | 0.00 | 0.00 | 77 | 1027.4 |
| 20260830113021 | 63 | 178 | 0.0 | 0.0 | 0.00 | 0.00 | 0.00 | 74 | 1027.4 |
| 20260830111513 | 63 | 180 | 0.0 | 0.0 | 0.00 | 0.00 | 0.00 | 78 | 1027.5 |
| 20260830110015 | 63 | 179 | 0.0 | 0.0 | 0.00 | 0.00 | 0.00 | 79 | 1027.5 |
| 20260830104511 | 62 | 184 | 0.0 | 0.0 | 0.00 | 0.00 | 0.00 | 78 | 1027.4 |
| 20260830103010 | 62 | 188 | 0.0 | 0.0 | 0.00 | 0.00 | 0.00 | 79 | 1027.5 |
| 20260830101511 | 62 | 188 | 0.0 | 0.0 | 0.00 | 0.00 | 0.00 | 79 | 1027.6 |
| 20260830100052 | 62 | 189 | 0.0 | 0.0 | 0.00 | 0.00 | 0.00 | 81 | 1027.6 |
| 20260830094551 | 62 | 189 | 0.0 | 0.0 | 0.00 | 0.00 | 0.00 | 79 | 1027.6 |
| 20260830093113 | 62 | 182 | 0.0 | 0.0 | 0.00 | 0.00 | 0.00 | 78 | 1027.5 |
| 20260830091550 | 62 | 184 | 0.0 | 0.0 | 0.00 | 0.00 | 0.00 | 78 | 1027.5 |
| 20260830090053 | 61 | 186 | 0.0 | 0.0 | 0.00 | 0.00 | 0.00 | 77 | 1027.4 |
| 20260830084551 | 61 | 188 | 0.0 | 0.0 | 0.00 | 0.00 | 0.00 | 79 | 1027.6 |
| 20260830083047 | 61 | 188 | 0.0 | 0.0 | 0.00 | 0.00 | 0.00 | 79 | 1027.8 |
| 20260830081545 | 61 | 189 | 0.0 | 0.0 | 0.00 | 0.00 | 0.00 | 78 | 1027.8 |
| 20260830080047 | 61 | 190 | 0.0 | 0.0 | 0.00 | 0.00 | 0.00 | 78 | 1027.8 |
| 20260830074620 | 61 | 194 | 0.0 | 0.0 | 0.00 | 0.00 | 0.00 | 79 | 1027.8 |
| 20260830073043 | 61 | 202 | 0.0 | 0.0 | 0.00 | 0.00 | 0.00 | 77 | 1028.0 |
| 20260830071548 | 61 | 205 | 0.0 | 0.0 | 0.00 | 0.00 | 0.00 | 78 | 1028.1 |
| 20260830070047 | 61 | 209 | 0.0 | 0.0 | 0.00 | 0.00 | 0.00 | 77 | 1028.1 |
| 20260830064541 | 62 | 209 | 0.0 | 0.0 | 0.00 | 0.00 | 0.00 | 76 | 1028.0 |
| 20260830063036 | 62 | 210 | 0.0 | 0.0 | 0.00 | 0.00 | 0.00 | 75 | 1028.1 |
| 20260830061535 | 63 | 213 | 0.0 | 0.0 | 0.00 | 0.00 | 0.00 | 74 | 1028.2 |
| 20260830060035 | 62 | 217 | 0.0 | 0.0 | 0.00 | 0.00 | 0.00 | 74 | 1028.2 |
| 20260830054537 | 63 | 219 | 0.0 | 0.0 | 0.00 | 0.00 | 0.00 | 73 | 1028.2 |
| 20260830053037 | 62 | 219 | 0.0 | 0.0 | 0.00 | 0.00 | 0.00 | 76 | 1028.2 |
| 20260830051543 | 62 | 225 | 0.0 | 0.0 | 0.00 | 0.00 | 0.00 | 75 | 1028.1 |
| 20260830050031 | 62 | 225 | 0.0 | 0.0 | 0.00 | 0.00 | 0.00 | 75 | 1028.0 |
| 20260830044530 | 62 | 225 | 0.0 | 0.0 | 0.00 | 0.00 | 0.00 | 76 | 1028.1 |
| 20260830043029 | 63 | 216 | 0.0 | 0.0 | 0.00 | 0.00 | 0.00 | 75 | 1028.2 |
| 20260830041555 | 63 | 216 | 0.0 | 0.0 | 0.00 | 0.00 | 0.00 | 74 | 1028.0 |
| 20260830040029 | 63 | 216 | 0.0 | 0.0 | 0.00 | 0.00 | 0.00 | 75 | 1027.9 |
| 20260830034524 | 63 | 216 | 0.0 | 0.0 | 0.00 | 0.00 | 0.00 | 75 | 1028.1 |
| 20260830033025 | 63 | 216 | 0.0 | 0.0 | 0.00 | 0.00 | 0.00 | 74 | 1028.0 |
| 20260830031522 | 63 | 216 | 0.0 | 0.0 | 0.00 | 0.00 | 0.00 | 75 | 1028.0 |
| 20260830030025 | 63 | 216 | 0.0 | 0.0 | 0.00 | 0.00 | 0.00 | 75 | 1028.1 |
| 20260830024519 | 63 | 216 | 0.0 | 0.0 | 0.00 | 0.00 | 0.00 | 73 | 1028.0 |
| 20260830023017 | 63 | 216 | 0.0 | 0.0 | 0.00 | 0.00 | 0.00 | 75 | 1027.8 |
| 20260830021517 | 63 | 219 | 0.0 | 0.0 | 0.00 | 0.00 | 0.00 | 76 | 1027.9 |
| 20260830020015 | 64 | 219 | 0.0 | 0.0 | 0.00 | 0.00 | 0.00 | 73 | 1027.9 |
| 20260830014515 | 64 | 221 | 0.0 | 0.0 | 0.00 | 0.00 | 0.00 | 73 | 1027.9 |